TimeMST,TemperatureF,Dew PointF,Humidity,Sea Level PressureIn,VisibilityMPH,Wind Direction,Wind SpeedMPH,Gust SpeedMPH,PrecipitationIn,Events,Conditions,WindDirDegrees,DateUTC
12:57 AM,35.1,25.0,67,29.76,10.0,SSW,12.7,-,N/A,,Clear,210,2013-12-03 07:57:00
1:57 AM,34.0,25.0,70,29.74,10.0,SW,9.2,-,N/A,,Clear,220,2013-12-03 08:57:00
2:57 AM,34.0,27.0,75,29.73,10.0,SSW,12.7,-,N/A,,Clear,210,2013-12-03 09:57:00
3:57 AM,33.1,26.1,75,29.74,10.0,SW,11.5,-,N/A,,Clear,220,2013-12-03 10:57:00
4:57 AM,32.0,26.1,79,29.75,10.0,SW,10.4,-,N/A,,Clear,220,2013-12-03 11:57:00
5:57 AM,30.9,25.0,79,29.79,10.0,SW,9.2,-,N/A,,Clear,220,2013-12-03 12:57:00
6:57 AM,30.9,23.0,72,29.81,10.0,SW,8.1,-,N/A,,Clear,220,2013-12-03 13:57:00
7:57 AM,32.0,23.0,69,29.82,10.0,SW,13.8,-,N/A,,Clear,220,2013-12-03 14:57:00
8:57 AM,37.0,24.1,59,29.81,10.0,SW,21.9,26.5,N/A,,Clear,220,2013-12-03 15:57:00
9:57 AM,39.9,24.1,53,29.81,10.0,SW,18.4,26.5,N/A,,Clear,220,2013-12-03 16:57:00
10:57 AM,42.1,24.1,49,29.77,10.0,SW,24.2,-,N/A,,Clear,220,2013-12-03 17:57:00
11:57 AM,44.1,25.0,47,29.71,10.0,SW,21.9,-,N/A,,Clear,230,2013-12-03 18:57:00
12:57 PM,44.1,26.1,49,29.66,10.0,SSW,21.9,35.7,N/A,,Clear,210,2013-12-03 19:57:00
1:57 PM,44.1,27.0,51,29.63,10.0,SSW,24.2,33.4,N/A,,Clear,210,2013-12-03 20:57:00
2:57 PM,45.0,28.0,52,29.60,10.0,SSW,17.3,27.6,N/A,,Clear,210,2013-12-03 21:57:00
3:57 PM,44.1,26.1,49,29.59,10.0,SW,29.9,41.4,N/A,,Clear,220,2013-12-03 22:57:00
4:57 PM,41.0,26.1,55,29.60,10.0,SW,17.3,32.2,N/A,,Clear,220,2013-12-03 23:57:00
5:57 PM,39.0,24.1,55,29.60,10.0,SSW,15.0,33.4,N/A,,Clear,200,2013-12-04 00:57:00
6:57 PM,37.0,23.0,57,29.63,10.0,SW,21.9,32.2,N/A,,Clear,220,2013-12-04 01:57:00
7:57 PM,37.0,21.9,54,29.63,10.0,SSW,23.0,32.2,N/A,,Clear,210,2013-12-04 02:57:00
8:57 PM,37.0,23.0,57,29.62,10.0,SSW,21.9,39.1,N/A,,Clear,210,2013-12-04 03:57:00
9:57 PM,37.0,24.1,59,29.59,10.0,SSW,18.4,27.6,N/A,,Clear,210,2013-12-04 04:57:00
10:57 PM,37.0,25.0,62,29.56,10.0,SSW,24.2,40.3,N/A,,Partly Cloudy,210,2013-12-04 05:57:00
11:57 PM,37.9,27.0,65,29.53,10.0,SSW,28.8,42.6,N/A,,Overcast,210,2013-12-04 06:57:00